THY1525 LTAU-LTFM

Flight info

Callsign THY1525
Flight time N/A
Altitude 32000
Route KISLA UL605 YAVRU UL615 ERSEN
Aircraft A320/M-SDE3FGHIRWY/LB1

Departure

Time 2026-05-05 13:30
Airport Kayseri Erkilet International Airport (LTAU)

Arrival

Time N/A
Airport İstanbul Airport (LTFM)
Time Latitude Longitude Altitude Speed Heading
2026-05-05 13:08 38.76630 35.48538 3468 ft 0 kts 165°
2026-05-05 13:21 38.76651 35.48530 3466 ft 4 kts 162°
2026-05-05 13:21 38.76676 35.48518 3468 ft 4 kts 149°
2026-05-05 13:21 38.76694 35.48497 3468 ft 4 kts 103°
2026-05-05 13:21 38.76696 35.48485 3468 ft 0 kts 77°
2026-05-05 13:24 38.76700 35.48504 3468 ft 7 kts 73°
2026-05-05 13:24 38.76721 35.48603 3467 ft 9 kts 78°
2026-05-05 13:24 38.76773 35.48635 3468 ft 16 kts 343°
2026-05-05 13:25 38.76875 35.48609 3467 ft 9 kts 352°
2026-05-05 13:25 38.76958 35.48584 3466 ft 15 kts 347°
2026-05-05 13:25 38.77010 35.48639 3465 ft 18 kts 80°
2026-05-05 13:25 38.77055 35.48873 3468 ft 30 kts 76°
2026-05-05 13:26 38.77102 35.49121 3470 ft 25 kts 77°
2026-05-05 13:26 38.77145 35.49347 3469 ft 27 kts 76°
2026-05-05 13:26 38.77193 35.49598 3466 ft 30 kts 76°
2026-05-05 13:26 38.77245 35.49866 3462 ft 28 kts 76°
2026-05-05 13:27 38.77292 35.50108 3462 ft 27 kts 76°
2026-05-05 13:27 38.77332 35.50329 3463 ft 24 kts 77°
2026-05-05 13:27 38.77371 35.50535 3467 ft 24 kts 76°
2026-05-05 13:27 38.77413 35.50750 3468 ft 25 kts 76°
2026-05-05 13:28 38.77456 35.50970 3471 ft 26 kts 75°
2026-05-05 13:28 38.77487 35.51134 3470 ft 10 kts 79°
2026-05-05 13:28 38.77431 35.51183 3469 ft 12 kts 169°
2026-05-05 13:28 38.77363 35.51187 3468 ft 9 kts 223°
2026-05-05 13:29 38.77347 35.51139 3469 ft 0 kts 256°
2026-05-05 13:29 38.77341 35.51107 3470 ft 23 kts 257°
2026-05-05 13:29 38.77245 35.50591 3467 ft 93 kts 255°
2026-05-05 13:30 38.77046 35.49557 3467 ft 143 kts 256°
2026-05-05 13:30 38.76803 35.48199 3830 ft 158 kts 260°
2026-05-05 13:30 38.76569 35.46787 4450 ft 168 kts 259°
2026-05-05 13:30 38.76347 35.45332 5225 ft 169 kts 262°
2026-05-05 13:31 38.76379 35.43803 5710 ft 179 kts 294°
2026-05-05 13:31 38.77261 35.42620 6059 ft 197 kts 332°
2026-05-05 13:31 38.78563 35.41828 6478 ft 217 kts 328°
2026-05-05 13:31 38.79639 35.40449 7070 ft 231 kts 298°
2026-05-05 13:32 38.80347 35.38469 7496 ft 255 kts 293°
2026-05-05 13:32 38.81005 35.36293 8180 ft 267 kts 291°
2026-05-05 13:32 38.81657 35.34010 8938 ft 276 kts 290°
2026-05-05 13:32 38.82316 35.31665 9788 ft 283 kts 291°
2026-05-05 13:33 38.83008 35.29240 10339 ft 300 kts 291°
2026-05-05 13:33 38.83763 35.26635 10616 ft 323 kts 291°
2026-05-05 13:33 38.84581 35.23849 10958 ft 341 kts 291°
2026-05-05 13:33 38.85431 35.20967 11603 ft 348 kts 291°
2026-05-05 13:34 38.86297 35.18044 12332 ft 353 kts 291°
2026-05-05 13:34 38.87175 35.15087 13064 ft 356 kts 292°
2026-05-05 13:34 38.88064 35.12101 13799 ft 361 kts 292°
2026-05-05 13:34 38.88961 35.09073 14468 ft 364 kts 292°
2026-05-05 13:35 38.89859 35.06025 15140 ft 367 kts 292°
2026-05-05 13:35 38.90763 35.02944 15801 ft 369 kts 292°
2026-05-05 13:35 38.91676 34.99840 16415 ft 373 kts 292°
2026-05-05 13:35 38.92586 34.96754 17048 ft 376 kts 292°
2026-05-05 13:36 38.93514 34.93598 17691 ft 380 kts 292°
2026-05-05 13:36 38.94447 34.90416 18324 ft 383 kts 292°
2026-05-05 13:36 38.95389 34.87198 18909 ft 386 kts 292°
2026-05-05 13:36 38.96337 34.83957 19508 ft 389 kts 292°
2026-05-05 13:37 38.97290 34.80698 20113 ft 392 kts 292°
2026-05-05 13:37 38.98254 34.77401 20702 ft 394 kts 293°
2026-05-05 13:37 38.99222 34.74092 21275 ft 397 kts 293°
2026-05-05 13:37 38.99850 34.71939 21625 ft 398 kts 293°
2026-05-05 13:38 39.00811 34.68636 22173 ft 401 kts 293°
2026-05-05 13:38 39.01785 34.65279 22713 ft 403 kts 293°
2026-05-05 13:38 39.02773 34.61882 23238 ft 406 kts 293°
2026-05-05 13:38 39.03764 34.58473 23730 ft 408 kts 293°
2026-05-05 13:39 39.04758 34.55041 24174 ft 410 kts 294°
2026-05-05 13:39 39.05752 34.51599 24610 ft 412 kts 294°
2026-05-05 13:39 39.06755 34.48125 25028 ft 414 kts 294°
2026-05-05 13:39 39.07753 34.44657 25478 ft 414 kts 294°
2026-05-05 13:40 39.08750 34.41175 25949 ft 415 kts 294°
2026-05-05 13:40 39.09752 34.37678 26401 ft 416 kts 295°
2026-05-05 13:40 39.10775 34.34189 26850 ft 416 kts 297°
2026-05-05 13:40 39.12084 34.30889 27287 ft 414 kts 304°
2026-05-05 13:41 39.13651 34.27786 27715 ft 412 kts 311°
2026-05-05 13:41 39.15469 34.24944 28164 ft 411 kts 309°
2026-05-05 13:41 39.17230 34.22033 28638 ft 412 kts 311°
2026-05-05 13:41 39.18961 34.19086 29079 ft 412 kts 311°
2026-05-05 13:42 39.20772 34.16219 29487 ft 413 kts 314°
2026-05-05 13:42 39.22670 34.13433 29990 ft 412 kts 316°
2026-05-05 13:42 39.24576 34.10690 30499 ft 410 kts 315°
2026-05-05 13:42 39.26468 34.07930 30863 ft 412 kts 315°
2026-05-05 13:43 39.30198 34.02284 30980 ft 414 kts 313°
2026-05-05 13:43 39.33860 33.96552 30971 ft 414 kts 313°
2026-05-05 13:44 39.37526 33.90824 30973 ft 412 kts 313°
2026-05-05 13:44 39.41200 33.85144 30966 ft 411 kts 313°
2026-05-05 13:45 39.44852 33.79497 30961 ft 411 kts 313°
2026-05-05 13:45 39.48495 33.73774 30961 ft 412 kts 312°
2026-05-05 13:46 39.52073 33.67987 30937 ft 412 kts 312°
2026-05-05 13:46 39.55638 33.62193 30961 ft 410 kts 312°
2026-05-05 13:47 39.59209 33.56424 30958 ft 410 kts 312°
2026-05-05 13:47 39.62844 33.50731 30959 ft 410 kts 313°
2026-05-05 13:48 39.66508 33.45056 30958 ft 410 kts 313°
2026-05-05 13:48 39.70154 33.39367 30958 ft 410 kts 313°
2026-05-05 13:49 39.73769 33.33692 30957 ft 410 kts 313°
2026-05-05 13:49 39.77400 33.27977 30958 ft 410 kts 313°
2026-05-05 13:50 39.81024 33.22254 30958 ft 410 kts 313°
2026-05-05 13:50 39.84643 33.16525 30960 ft 410 kts 313°
2026-05-05 13:51 39.88270 33.10792 30959 ft 410 kts 313°
2026-05-05 13:51 39.91896 33.05045 30963 ft 410 kts 313°
2026-05-05 13:52 39.95512 32.99296 30964 ft 410 kts 313°
2026-05-05 13:52 39.99129 32.93547 30967 ft 410 kts 313°